Regional Weather Roundup
Issued by NWS Midland/Odessa, TX

Skip options and go directly to product.
Home | Oldest Version | Next Version | Current Version | All | Text Only | Save Text | Print | Product List | Glossary On

Skip product version selection by date and time.   
956
ASUS44 KMAF 020001
RWRMAF
MIDLAND AREA WEATHER ROUNDUP
NATIONAL WEATHER SERVICE MIDLAND TX
600 PM CST SUN MAR 01 2015

...IN SOUTHWEST TEXAS AND SOUTHEAST NEW MEXICO...

CITY           SKY/WX    TMP DP  RH WIND       PRES   REMARKS
ALPINE         MOSUNNY   55  40  58 NE8       30.20R
ANDREWS        CLOUDY    35  34  96 E8        30.21R WCI  29
ARTESIA        PTSUNNY   48  37  66 S8        30.16R
BIG SPRING     CLOUDY    34  32  92 NE12      30.26R WCI  26
CARLSBAD       PTSUNNY   47  36  65 S10       30.15R
DRYDEN           N/A     49  43  80 E8        30.16R
FORT STOCKTON  CLOUDY    44  40  85 NE12      30.17R WCI  38
GUAD PASS      NOT AVBL
HOBBS          CLOUDY    37  37 100 E10       30.19R WCI  30
MARFA          MOSUNNY   66  21  18 SE9       30.14R
MIDLAND AIRPK  FOG       37  37 100 E12       30.22S VSB 1   WCI  29
MIDLAND INTL   FOG       36  35  96 NE13      30.21R VSB 1/2 WCI  27
ODESSA         CLOUDY    37  34  89 NE13      30.21R FOG     WCI  29
PECOS          CLOUDY    44  37  77 E6        30.19R
PRESIDIO       FAIR      73  36  26 S5        30.02S
SEMINOLE       CLOUDY    35  32  89 NE7       30.23R WCI  29
SNYDER         CLOUDY    30  30  99 NE7       30.27R FOG     WCI  24
WINK           CLOUDY    43  35  73 E10       30.18R WCI  37
$$
...OTHER STATIONS IN TEXAS...

CITY           SKY/WX    TMP DP  RH WIND       PRES   REMARKS
ABILENE        CLOUDY    32  30  92 NE7       30.30R WCI  26
AMARILLO       CLOUDY    31  27  85 NE9       30.27R FOG     WCI  23
AUSTIN         CLOUDY    42  42 100 N15       30.25R FOG     WCI  34
BROWNSVILLE    CLOUDY    58  55  90 N7        30.14R
CORPUS CHRISTI CLOUDY    51  50  96 N13       30.17R FOG
DALLAS FTW     CLOUDY    36  34  92 N10       30.33R WCI  28
DEL RIO        CLOUDY    51  46  83 NW5       30.19R
EL PASO        PTSUNNY   74  14  10 VRB6      30.02S
HOUSTON INT    FOG       55  55 100 N8        30.21R VSB 1/4
LUBBOCK        CLOUDY    31  28  89 NE9       30.24R WCI  23
SAN ANGELO     CLOUDY    37  36  96 NE10      30.27R FOG     WCI  30
SAN ANTONIO    LGT RAIN  47  44  90 N6        30.21R FOG
WACO           CLOUDY    39  36  89 N10       30.31R WCI  32
WICHITA FALLS  NOT AVBL
$$
...OTHER LOCATIONS IN NEW MEXICO...

CITY           SKY/WX    TMP DP  RH WIND       PRES   REMARKS
ALAMAGORDO     MOSUNNY   68  25  19 S13G24    30.05S
ALBUQUERQUE    MOSUNNY   63  32  31 S14G25    30.01F
CANNON AFB     CLOUDY    33  31  94 E9        30.20R WCI  25
CLOVIS         CLOUDY    32  30  93 E9        30.20S WCI  24
HOLLOMAN AFB   MOSUNNY   69  25  19 N16       30.02R
ROSWELL        PTSUNNY   39  34  82 NW9       30.16R WCI  33
RUIDOSO        MOSUNNY   57  27  30 SW14G20   30.15R
SANTA FE       CLOUDY    53  33  46 CALM      30.05F
TRUTH OR CONSE SUNNY     68  25  19 S22G30    30.02S
TUCUMCARI      CLOUDY    33  29  85 NE14      30.22R WCI  23
$$

USA.gov is the U.S. government's official web portal to all federal, state and local government web resources and services.